Location: Hac?musa Deresi
(39.1694°N, 32.2508°E)
Time: 15:27:47
(UTC+00:00)

Cosmos 2082 Rocket - Pass Details

Date: 22 April 2026
Orbit: 831 x 853 km, 71.0° (Epoch: 11 May)

Event Time Altitude Azimuth Distance (km) Brightness Sun altitude
Exits shadow 23:02:55 35° 352° (N) 1,351 3.5 -35.6°
Drops below altitude 10° 23:06:24 10° 13° (NNE) 2,490 5.4 -35.3°
Sets 23:08:56 0° 19° (NNE) 3,429 6.4 -35.1°
